Weather History for Poughkeepsie, NY

Change the Weather History Date:

Saturday, December 1, 2012

  Actual Average Record
Temperature  
Mean Temperature 32 °F 36 °F  
Max Temperature 36 °F 46 °F 69 °F (2006)
Min Temperature 28 °F 27 °F 9 °F (1967)
Degree Days  
Heating Degree Days 33 29  
Month to date heating degree days 33 29  
Since 1 July heating degree days 1179 1307  
Cooling Degree Days 0 0  
Month to date cooling degree days 0 0  
Year to date cooling degree days 895 672  
Moisture  
Dew Point 25 °F    
Average Humidity 74    
Maximum Humidity 89    
Minimum Humidity 58    
Precipitation  
Precipitation T in 0.12 in 1.34 in (2010)
Month to date precipitation T 0.12  
Year to date precipitation 32.26 43.12  
Sea Level Pressure  
Sea Level Pressure 30.50 in    
Wind  
Wind Speed 2 mph (North)    
Max Wind Speed 9 mph    
Max Gust Speed 10 mph    
Visibility 9 miles    
Events      
T = Trace of Precipitation, MM = Missing Value Source: NWS Daily Summary

Daily Weather History Graph

Daily Weather History Graph

Search for Another Location

Airport:

Trip Planner

Search our weather history database for the weather conditions in past years. The results will help you decide how hot, cold, wet, or windy it might be!

Date:

Astronomy

Dec. 01, 2012 Rise Set
Actual Time 7:03 AM EST 4:26 PM EST
Civil Twilight 6:32 AM EST 4:56 PM EST
Nautical Twilight 5:57 AM EST 5:31 PM EST
Astronomical Twilight 5:24 AM EST 6:04 PM EST
Moon 7:14 PM EST (12/1) 9:14 AM EST (12/1)
Length of Visible Light 10h 24m
Length of Day
9h 22m
Waning Gibbous, 92% of the Moon is Illuminated
Dec 1
Waning Gibbous
Dec 6
Last Quarter
Dec 13
New
Dec 20
First Quarter
Dec 28
Full

Hourly Weather History & Observations

Time (EST) Temp. Windchill Dew Point Humidity Pressure Visibility Wind Dir Wind Speed Gust Speed Precip Events Conditions
12:53 AM 28.9 °F 23.9 °F 16.0 °F 58% 30.50 in 10.0 mi NNW 4.6 mph - N/A   Overcast
1:53 AM 28.0 °F 21.7 °F 19.0 °F 69% 30.51 in 10.0 mi North 5.8 mph - 0.00 in   Overcast
2:53 AM 28.0 °F 24.2 °F 19.9 °F 72% 30.51 in 10.0 mi North 3.5 mph - N/A   Overcast
3:53 AM 28.0 °F 22.8 °F 19.9 °F 72% 30.50 in 10.0 mi North 4.6 mph - N/A   Overcast
5:53 AM 28.9 °F 25.2 °F 21.0 °F 72% 30.51 in 10.0 mi North 3.5 mph - N/A   Overcast
6:53 AM 28.9 °F 25.2 °F 21.0 °F 72% 30.53 in 10.0 mi NNE 3.5 mph - N/A   Overcast
7:53 AM 28.9 °F - 21.9 °F 75% 30.52 in 10.0 mi Calm Calm - 0.00 in   Overcast
8:53 AM 30.0 °F 25.2 °F 23.0 °F 75% 30.55 in 10.0 mi NNE 4.6 mph - N/A   Overcast
9:53 AM 30.9 °F 26.2 °F 23.0 °F 72% 30.55 in 10.0 mi North 4.6 mph - N/A   Overcast
10:53 AM 32.0 °F 28.7 °F 24.1 °F 73% 30.54 in 10.0 mi NNW 3.5 mph - N/A   Overcast
11:33 AM 33.8 °F 30.8 °F 24.8 °F 70% 30.52 in 10.0 mi North 3.5 mph - N/A   Overcast
11:53 AM 33.1 °F 30.0 °F 25.0 °F 72% 30.51 in 10.0 mi Variable 3.5 mph - N/A   Overcast
12:53 PM 33.1 °F 30.0 °F 25.0 °F 72% 30.49 in 10.0 mi NNW 3.5 mph - N/A   Overcast
1:53 PM 34.0 °F - 27.0 °F 75% 30.48 in 10.0 mi Calm Calm - N/A   Overcast
2:53 PM 34.0 °F 31.0 °F 27.0 °F 75% 30.48 in 10.0 mi NW 3.5 mph - N/A   Overcast
3:53 PM 34.0 °F - 28.0 °F 79% 30.48 in 10.0 mi Calm Calm - N/A   Overcast
4:53 PM 34.0 °F - 28.0 °F 79% 30.49 in 10.0 mi Calm Calm - N/A   Overcast
5:17 PM 33.8 °F - 28.4 °F 81% 30.49 in 10.0 mi Calm Calm - N/A   Overcast
5:53 PM 34.0 °F - 28.9 °F 82% 30.49 in 10.0 mi Calm Calm - N/A   Overcast
6:53 PM 34.0 °F - 28.9 °F 82% 30.48 in 7.0 mi Calm Calm - N/A   Overcast
7:53 PM 34.0 °F - 30.0 °F 85% 30.47 in 6.0 mi Calm Calm - N/A   Overcast
8:53 PM 35.1 °F - 30.0 °F 82% 30.47 in 6.0 mi Calm Calm - N/A   Haze
9:53 PM 35.1 °F - 30.0 °F 82% 30.46 in 6.0 mi Calm Calm - N/A   Haze
10:53 PM 35.1 °F - 30.9 °F 85% 30.44 in 6.0 mi Calm Calm - N/A   Overcast
11:53 PM 35.1 °F - 30.9 °F 85% 30.44 in 5.0 mi Calm Calm - N/A   Overcast